Location: Chippewa Lake
(41.0698°N, 81.9010°W)
Time: 02:17:21
(UTC+00:00)

Helios 1B rocket - Pass Details

Date: 09 May 2021
Orbit: 573 x 583 km, 98.2° (Epoch: 24 June)

Event Time Altitude Azimuth Distance (km) Brightness Sun altitude
Rises 07:19:41 0° 9° (N) 2,816 7.0 -25.6°
Reaches altitude 10° 07:21:51 10° 7° (N) 1,911 5.9 -25.4°
Enters shadow 07:25:19 55° 332° (NNW) 704 2.9 -25.1°
